Houston Hull, TX

10:56 AM CDT on May 25, 2017 (GMT -0500)
Sugar Land Municipal-Hull

Weather History for KSGR - April, 2013

Change the Weather History Date:

Sunday, April 14, 2013

  Actual Average Record
Temperature  
Mean Temperature 63 °F -  
Max Temperature 84 °F 78 °F 89 °F (1972)
Min Temperature 55 °F 59 °F 39 °F (1980)
Degree Days  
Heating Degree Days 2    
Growing Degree Days 13 (Base 50)    
Moisture  
Dew Point 60 °F    
Average Humidity 92    
Maximum Humidity 100    
Minimum Humidity 83    
Precipitation  
Precipitation 0.00 in - - ()
Sea Level Pressure  
Sea Level Pressure 29.76 in    
Wind  
Wind Speed 2 mph (SSE)    
Max Wind Speed 15 mph    
Max Gust Speed -    
Visibility 8 miles    
Events      
Averages and records for this station are not official NWS values.
T = Trace of Precipitation, MM = Missing Value Source: NWS Daily Summary

Daily Weather History Graph

Daily Weather History Graph

Search for Another Location

Airport or City:

Trip Planner

Search our weather history database for the weather conditions in past years. The results will help you decide how hot, cold, wet, or windy it might be!

Date:

Astronomy

Apr. 14, 2013 Rise Set
Actual Time 6:56 AM CDT 7:49 PM CDT
Civil Twilight 6:32 AM CDT 8:13 PM CDT
Nautical Twilight 6:03 AM CDT 8:42 PM CDT
Astronomical Twilight 5:34 AM CDT 9:11 PM CDT
Moon 9:47 AM CDT (4/14) 11:50 PM CDT (4/14)
Length of Visible Light 13h 40m
Length of Day
12h 52m
Waxing Crescent, 17% of the Moon is Illuminated
Apr 14
Waxing Crescent
Apr 18
First Quarter
Apr 25
Full
May 2
Last Quarter
May 9
New

Hourly Weather History & Observations

Time (CDT) Temp. Dew Point Humidity Pressure Visibility Wind Dir Wind Speed Gust Speed Precip Events Conditions
12:51 AM 60.8 °F 57.2 °F 88% 29.80 in 10.0 mi Calm Calm - N/A   Mostly Cloudy
12:53 AM 61.0 °F 57.9 °F 90% 29.83 in 10.0 mi Calm Calm - N/A   Mostly Cloudy
1:26 AM 64.4 °F 60.8 °F 88% 29.79 in 10.0 mi ESE 3.5 mph - N/A   Scattered Clouds
1:53 AM 64.0 °F 60.1 °F 87% 29.81 in 10.0 mi Calm Calm - N/A   Clear
2:09 AM 59.0 °F 57.2 °F 94% 29.77 in 10.0 mi Calm Calm - N/A   Mostly Cloudy
2:53 AM 57.9 °F 57.0 °F 97% 29.79 in 9.0 mi Calm Calm - N/A   Mostly Cloudy
3:17 AM 57.2 °F 57.2 °F 100% 29.75 in 5.0 mi Calm Calm - N/A   Scattered Clouds
3:29 AM 57.2 °F 57.2 °F 100% 29.75 in 2.5 mi Calm Calm - N/A   Scattered Clouds
3:38 AM 59.0 °F 57.2 °F 94% 29.75 in 6.0 mi Calm Calm - N/A   Partly Cloudy
3:53 AM 57.9 °F 57.0 °F 97% 29.76 in 8.0 mi Calm Calm - N/A   Clear
4:13 AM 57.2 °F 57.2 °F 100% 29.74 in 1.5 mi Calm Calm - N/A   Partly Cloudy
4:28 AM 55.4 °F 55.4 °F 100% 29.74 in 4.0 mi Calm Calm - N/A   Scattered Clouds
4:53 AM 57.0 °F 55.9 °F 96% 29.75 in 5.0 mi Calm Calm - N/A   Clear
5:22 AM 55.4 °F 55.4 °F 100% 29.74 in 2.5 mi Calm Calm - N/A   Scattered Clouds
5:31 AM 57.2 °F 55.4 °F 94% 29.74 in 5.0 mi Calm Calm - N/A   Mostly Cloudy
5:53 AM 57.9 °F 55.9 °F 93% 29.76 in 7.0 mi Calm Calm - N/A   Overcast
8:29 PM 71.6 °F 66.2 °F 83% 29.70 in 10.0 mi SSE 15.0 mph - N/A   Mostly Cloudy
8:53 PM 71.1 °F 66.0 °F 84% 29.73 in 10.0 mi SSE 10.4 mph - N/A   Scattered Clouds
9:53 PM 70.0 °F 66.0 °F 87% 29.76 in 10.0 mi SSE 9.2 mph - N/A   Mostly Cloudy
10:53 PM 69.1 °F 66.0 °F 90% 29.76 in 10.0 mi SSE 8.1 mph - N/A   Mostly Cloudy
11:03 PM 69.8 °F 66.2 °F 88% 29.74 in 10.0 mi SSE 8.1 mph - N/A   Mostly Cloudy
11:10 PM 69.8 °F 66.2 °F 88% 29.74 in 10.0 mi SSE 8.1 mph - N/A   Scattered Clouds
11:19 PM 69.8 °F 66.2 °F 88% 29.74 in 10.0 mi SSE 8.1 mph - N/A   Mostly Cloudy
11:53 PM 69.1 °F 66.9 °F 93% 29.77 in 10.0 mi SSE 6.9 mph - N/A   Overcast